Greenville, ME

10:14 PM EST on November 14, 2019 (GMT -0500)
Greenville

Weather History for KGNR - September, 2019

Change the Weather History Date:

Friday, September 13, 2019

  Actual Average (WUND) Record (WUND)
Temperature  
Mean Temperature 52 °F -  
Max Temperature 62 °F - - (-1)
Min Temperature 44 °F - - (-1)
Degree Days  
Heating Degree Days 12    
Growing Degree Days 2 (Base 50)    
Moisture  
Dew Point 39 °F    
Average Humidity 63    
Maximum Humidity 86    
Minimum Humidity 42    
Precipitation  
Precipitation 0.00 in - - ()
Sea Level Pressure  
Sea Level Pressure 30.46 in    
Wind  
Wind Speed 5 mph ()    
Max Wind Speed 7 mph    
Max Gust Speed -    
Averages and records for this station are not official NWS values.
T = Trace of Precipitation, MM = Missing Value Source: Averaged Metar Reports

Daily Weather History Graph

Daily Weather History Graph

Search for Another Location

Airport or City:

Astronomy

Sep. 13, 2019 Rise Set
Actual Time 6:14 AM EDT 6:53 PM EDT
Civil Twilight 5:44 AM EDT 7:23 PM EDT
Nautical Twilight 5:08 AM EDT 7:58 PM EDT
Astronomical Twilight 4:31 AM EDT 8:35 PM EDT
Moon 7:09 PM EDT (9/13) 5:22 AM EDT (9/13)
Length of Visible Light 13h 39m
Length of Day
12h 39m
Full, 100% of the Moon is Illuminated
Sep 13
Full
Sep 14
Full
Sep 21
Last Quarter
Sep 28
New
Oct 5
First Quarter

Hourly Weather History & Observations

Time (EDT) Temp. Windchill Dew Point Humidity Pressure Visibility Wind Dir Wind Speed Gust Speed Precip Events Conditions
12:56 AM 48.0 °F - 41.0 °F 77% 30.36 in - North 6.9 mph - N/A   Unknown
1:56 AM 46.9 °F - 39.9 °F 77% 30.38 in - North 6.9 mph - N/A   Unknown
2:56 AM 46.0 °F 42.5 °F 39.9 °F 79% 30.39 in - North 6.9 mph - N/A   Unknown
3:56 AM 46.0 °F 42.5 °F 39.9 °F 79% 30.40 in - North 6.9 mph - N/A   Unknown
4:56 AM 45.0 °F 41.2 °F 39.9 °F 82% 30.44 in - NNW 6.9 mph - N/A   Unknown
5:56 AM 44.1 °F 40.1 °F 39.0 °F 82% 30.46 in - North 6.9 mph - N/A   Unknown
7:56 AM 46.9 °F - 39.9 °F 77% 30.51 in - Calm Calm - N/A   Unknown
8:56 AM 52.0 °F - 39.0 °F 61% 30.52 in - North 3.5 mph - N/A   Unknown
9:56 AM 55.0 °F - 36.0 °F 49% 30.53 in - Variable 3.5 mph - N/A   Unknown
10:56 AM 55.9 °F - 36.0 °F 47% 30.54 in - Variable 3.5 mph - N/A   Unknown
11:56 AM 57.9 °F - 36.0 °F 44% 30.52 in - East 4.6 mph - N/A   Unknown
12:56 PM 60.1 °F - 37.9 °F 44% 30.51 in - SSE 4.6 mph - N/A   Unknown
1:56 PM 60.1 °F - 37.9 °F 44% 30.49 in - Calm Calm - N/A   Unknown
2:56 PM 61.0 °F - 37.9 °F 42% 30.47 in - Variable 5.8 mph - N/A   Unknown
3:56 PM 61.0 °F - 39.0 °F 44% 30.46 in - Variable 5.8 mph - N/A   Unknown
4:56 PM 60.1 °F - 37.9 °F 44% 30.47 in - Variable 5.8 mph - N/A   Unknown
5:56 PM 57.0 °F - 39.0 °F 51% 30.48 in - SSE 3.5 mph - N/A   Unknown
6:56 PM 53.1 °F - 39.9 °F 61% 30.47 in - South 4.6 mph - N/A   Unknown
7:56 PM 50.0 °F - 39.9 °F 68% 30.45 in - SE 6.9 mph - N/A   Unknown
8:56 PM 50.0 °F - 39.9 °F 68% 30.45 in - SSE 4.6 mph - N/A   Unknown
9:56 PM 46.9 °F - 39.9 °F 77% 30.45 in - SSE 3.5 mph - N/A   Unknown
10:56 PM 45.0 °F - 41.0 °F 86% 30.43 in - Calm Calm - N/A   Unknown
11:56 PM 46.0 °F 43.1 °F 37.0 °F 71% 30.41 in - SSE 5.8 mph - N/A   Unknown